When you browse on this site, cookies collect data to enhance your experience and personalize the content and advertising you see.
Visit our Privacy Policy to learn more. By continuing to use the site, you agree to this use of cookies and data.
  • In Lithuania
  • List of Countries
  • For 7 days
  • Water Temperature
  • Satellite Maps
  • Weather Map
  • Weather Widgets
  • user-avatar
    Login

    Hourly Weather Belyanin

    Today, 18 November, Sunday

    Time Temperature Precipitation Wind Pressure Humidity
    00:00 -4°C° 0 mm 2 mps 772 mmHg 83%
    01:00 -5°C° 0 mm 2 mps 771 mmHg 83%
    02:00 -5°C° 0 mm 2 mps 771 mmHg 83%
    03:00 -5°C° 0 mm 2 mps 771 mmHg 83%
    04:00 -5°C° 0 mm 2 mps 770 mmHg 83%
    05:00 -4°C° 0 mm 2 mps 770 mmHg 84%
    06:00 -4°C° 0 mm 2 mps 770 mmHg 84%
    07:00 -2°C° 0 mm 1 mps 770 mmHg 84%
    08:00 -2°C° 0 mm 1 mps 770 mmHg 84%
    09:00 -2°C° 0 mm 1 mps 770 mmHg 82%
    10:00 -1°C° 0 mm 1 mps 770 mmHg 81%
    11:00 0°C° 0 mm 1 mps 769 mmHg 81%
    12:00 +1°C° 0 mm 1 mps 769 mmHg 80%
    13:00 +1°C° 0 mm 1 mps 769 mmHg 82%
    14:00 +1°C° 0 mm 1 mps 769 mmHg 83%
    15:00 0°C° 0 mm 0 mps 769 mmHg 79%
    16:00 0°C° 0 mm 0 mps 769 mmHg 81%
    17:00 0°C° 0 mm 1 mps 769 mmHg 82%
    18:00 0°C° 0 mm 1 mps 769 mmHg 83%
    19:00 0°C° 0 mm 1 mps 769 mmHg 84%
    20:00 0°C° 0 mm 1 mps 769 mmHg 84%
    21:00 -1°C° 0 mm 1 mps 769 mmHg 85%
    22:00 -1°C° 0 mm 1 mps 769 mmHg 85%
    23:00 -1°C° 0 mm 1 mps 769 mmHg 86%

    Tomorrow, 19 November, Monday

    Time Temperature Precipitation Wind Pressure Humidity
    00:00 -1°C° 0 mm 1 mps 769 mmHg 87%
    01:00 -2°C° 0 mm 1 mps 769 mmHg 88%
    02:00 -2°C° 0 mm 1 mps 769 mmHg 88%
    03:00 -5°C° 0 mm 2 mps 769 mmHg 89%
    04:00 -5°C° 0 mm 2 mps 769 mmHg 90%
    05:00 -5°C° 0 mm 2 mps 769 mmHg 90%
    06:00 -5°C° 0 mm 2 mps 769 mmHg 91%
    07:00 -5°C° 0 mm 2 mps 769 mmHg 91%
    08:00 -4°C° 0 mm 2 mps 769 mmHg 91%
    09:00 -5°C° 0 mm 3 mps 769 mmHg 92%
    10:00 -4°C° 0 mm 3 mps 769 mmHg 92%
    11:00 -2°C° 0 mm 3 mps 769 mmHg 92%
    12:00 -1°C° 0 mm 3 mps 769 mmHg 92%
    13:00 0°C° 0 mm 3 mps 769 mmHg 92%
    14:00 -1°C° 0 mm 4 mps 769 mmHg 92%
    15:00 -1°C° 0 mm 4 mps 768 mmHg 92%
    16:00 -1°C° 0 mm 4 mps 768 mmHg 91%
    17:00 -2°C° 0 mm 4 mps 768 mmHg 90%
    18:00 -2°C° 0 mm 4 mps 768 mmHg 89%
    19:00 -2°C° 0 mm 4 mps 768 mmHg 87%
    20:00 -2°C° 0 mm 4 mps 767 mmHg 85%
    21:00 -2°C° 0 mm 4 mps 767 mmHg 84%
    22:00 -1°C° 0.1 mm 4 mps 767 mmHg 85%
    23:00 -1°C° 0.1 mm 4 mps 767 mmHg 86%

    Day after tomorrow, 20 November, Tuesday

    Time Temperature Precipitation Wind Pressure Humidity
    00:00 -1°C° 0.1 mm 4 mps 766 mmHg 87%
    01:00 -1°C° 0.6 mm 4 mps 766 mmHg 88%
    02:00 -1°C° 0.6 mm 4 mps 766 mmHg 89%
    03:00 -1°C° 0.6 mm 4 mps 766 mmHg 91%
    04:00 -1°C° 0.5 mm 5 mps 765 mmHg 91%
    05:00 -1°C° 0.5 mm 5 mps 765 mmHg 92%
    06:00 0°C° 0.5 mm 5 mps 764 mmHg 93%
    07:00 0°C° 1.3 mm 5 mps 764 mmHg 94%
    08:00 0°C° 1.3 mm 5 mps 764 mmHg 95%
    09:00 0°C° 1.3 mm 5 mps 764 mmHg 97%
    10:00 0°C° 1.1 mm 5 mps 763 mmHg 97%
    11:00 0°C° 1.1 mm 5 mps 763 mmHg 98%
    12:00 -1°C° 1.1 mm 6 mps 762 mmHg 98%
    13:00 0°C° 0.4 mm 5 mps 762 mmHg 98%
    14:00 0°C° 0.4 mm 5 mps 762 mmHg 98%
    15:00 +1°C° 0.4 mm 4 mps 762 mmHg 98%
    16:00 +1°C° 0.5 mm 4 mps 762 mmHg 98%
    17:00 +1°C° 0.5 mm 4 mps 762 mmHg 98%
    18:00 0°C° 0.5 mm 4 mps 762 mmHg 98%
    19:00 0°C° 0.1 mm 4 mps 762 mmHg 98%
    20:00 0°C° 0.1 mm 4 mps 762 mmHg 97%
    21:00 0°C° 0.1 mm 5 mps 763 mmHg 97%
    22:00 0°C° 0 mm 4 mps 763 mmHg 96%
    23:00 0°C° 0 mm 4 mps 764 mmHg 95%

    21 November, Wednesday

    Time Temperature Precipitation Wind Pressure Humidity
    00:00 -1°C° 0 mm 4 mps 764 mmHg 94%
    01:00 -1°C° 0 mm 4 mps 765 mmHg 93%
    02:00 0°C° 0 mm 3 mps 765 mmHg 93%
    03:00 -1°C° 0 mm 3 mps 765 mmHg 93%
    04:00 -1°C° 0 mm 3 mps 765 mmHg 92%
    05:00 -1°C° 0 mm 3 mps 765 mmHg 91%
    06:00 -1°C° 0 mm 3 mps 766 mmHg 91%
    07:00 -1°C° 0 mm 3 mps 766 mmHg 90%
    08:00 -2°C° 0 mm 4 mps 766 mmHg 89%
    09:00 -2°C° 0 mm 4 mps 766 mmHg 88%
    10:00 -2°C° 0 mm 4 mps 766 mmHg 88%
    11:00 -1°C° 0 mm 4 mps 766 mmHg 87%
    12:00 -1°C° 0 mm 4 mps 765 mmHg 86%
    13:00 -1°C° 0.1 mm 4 mps 765 mmHg 87%
    14:00 -1°C° 0.1 mm 4 mps 765 mmHg 87%
    15:00 -1°C° 0.1 mm 4 mps 765 mmHg 87%
    16:00 -1°C° 0.4 mm 4 mps 764 mmHg 88%
    17:00 -2°C° 0.4 mm 4 mps 764 mmHg 90%
    18:00 -2°C° 0.4 mm 4 mps 764 mmHg 91%
    19:00 -2°C° 0.2 mm 4 mps 764 mmHg 91%
    20:00 -2°C° 0.2 mm 4 mps 764 mmHg 91%
    21:00 -2°C° 0.2 mm 4 mps 764 mmHg 91%
    22:00 -3°C° 0 mm 4 mps 764 mmHg 91%
    23:00 -3°C° 0 mm 4 mps 764 mmHg 91%

    22 November, Thursday

    Time Temperature Precipitation Wind Pressure Humidity
    00:00 -4°C° 0 mm 3 mps 764 mmHg 91%
    01:00 -4°C° 0 mm 3 mps 765 mmHg 90%
    02:00 -5°C° 0 mm 3 mps 765 mmHg 90%
    03:00 -5°C° 0 mm 3 mps 765 mmHg 89%
    04:00 -6°C° 0 mm 3 mps 765 mmHg 89%
    05:00 -6°C° 0 mm 3 mps 765 mmHg 89%
    06:00 -6°C° 0 mm 3 mps 765 mmHg 89%
    07:00 -6°C° 0 mm 3 mps 765 mmHg 88%
    08:00 -6°C° 0 mm 3 mps 766 mmHg 88%
    09:00 -5°C° 0 mm 3 mps 766 mmHg 87%
    10:00 -4°C° 0 mm 3 mps 766 mmHg 86%
    11:00 -2°C° 0 mm 3 mps 766 mmHg 86%
    12:00 -2°C° 0 mm 3 mps 766 mmHg 85%
    13:00 -2°C° 0 mm 3 mps 765 mmHg 85%
    14:00 -1°C° 0 mm 3 mps 765 mmHg 86%
    15:00 -1°C° 0 mm 3 mps 765 mmHg 86%
    16:00 -2°C° 0 mm 3 mps 765 mmHg 88%
    17:00 -4°C° 0 mm 3 mps 765 mmHg 90%
    18:00 -5°C° 0 mm 3 mps 765 mmHg 91%
    19:00 -4°C° 0 mm 2 mps 766 mmHg 90%
    20:00 -4°C° 0 mm 2 mps 766 mmHg 90%
    21:00 -5°C° 0 mm 2 mps 766 mmHg 89%
    22:00 -5°C° 0 mm 2 mps 766 mmHg 88%
    23:00 -5°C° 0 mm 2 mps 766 mmHg 87%

    23 November, Friday

    Time Temperature Precipitation Wind Pressure Humidity
    00:00 -5°C° 0 mm 2 mps 766 mmHg 87%
    01:00 -5°C° 0 mm 2 mps 766 mmHg 86%
    02:00 -6°C° 0 mm 3 mps 766 mmHg 86%
    03:00 -6°C° 0 mm 3 mps 766 mmHg 86%
    04:00 -6°C° 0 mm 3 mps 767 mmHg 86%
    05:00 -6°C° 0 mm 3 mps 767 mmHg 87%
    06:00 -6°C° 0 mm 3 mps 767 mmHg 87%
    07:00 -6°C° 0 mm 3 mps 768 mmHg 87%
    08:00 -6°C° 0 mm 3 mps 769 mmHg 87%
    09:00 -5°C° 0 mm 3 mps 770 mmHg 87%
    10:00 -4°C° 0 mm 3 mps 770 mmHg 85%
    11:00 -2°C° 0 mm 3 mps 771 mmHg 84%
    12:00 -1°C° 0 mm 3 mps 771 mmHg 82%
    13:00 -1°C° 0 mm 3 mps 771 mmHg 83%
    14:00 -1°C° 0 mm 3 mps 772 mmHg 83%
    15:00 -1°C° 0 mm 3 mps 772 mmHg 83%
    16:00 -2°C° 0 mm 2 mps 772 mmHg 85%
    17:00 -3°C° 0 mm 2 mps 773 mmHg 87%
    18:00 -4°C° 0 mm 2 mps 773 mmHg 88%
    19:00 -4°C° 0 mm 2 mps 774 mmHg 87%
    20:00 -5°C° 0 mm 2 mps 774 mmHg 86%
    21:00 -5°C° 0 mm 2 mps 774 mmHg 85%
    22:00 -3°C° 0 mm 1 mps 774 mmHg 83%
    23:00 -3°C° 0 mm 1 mps 774 mmHg 81%
    Show more